KD0NNG Weather Reports


Display with metric or nautical units.
time (UTC)temp
F
wind
direction
speed
MPH
gust
MPH
rain 1hr
in
rain 24hr
in
rain mn
in
humidity
%
barometer
mb
20260504050432 52 169 1.0 4.0 0.00 0.00 0.00 55 1001.2
20260504050230 52 169 1.0 2.0 0.00 0.00 0.00 56 1001.5
20260504045432 52 169 1.0 2.0 0.00 0.00 0.00 56 1001.5
20260504044931 52 169 1.0 2.0 0.00 0.00 0.00 57 1001.6
20260504044431 52 169 0.0 1.0 0.00 0.00 0.00 58 1001.8
20260504043931 52 169 0.0 1.0 0.00 0.00 0.00 59 1001.8
20260504043429 52 169 0.0 1.0 0.00 0.00 0.00 58 1001.8
20260504043225 52 169 1.0 2.0 0.00 0.00 0.00 57 1002.0
20260504042430 52 169 1.0 2.0 0.00 0.00 0.00 57 1002.0
20260504041930 52 169 1.0 2.0 0.00 0.00 0.00 57 1002.1
20260504041431 52 169 1.0 2.0 0.00 0.00 0.00 58 1002.2
20260504040931 52 169 1.0 2.0 0.00 0.00 0.00 58 1002.4
20260504040429 52 170 1.0 2.0 0.00 0.00 0.00 57 1002.4
20260504035929 53 169 1.0 2.0 0.00 0.00 0.00 56 1002.6
20260504035429 53 225 1.0 2.0 0.00 0.00 0.00 55 1002.6
20260504034929 53 225 1.0 2.0 0.00 0.00 0.00 54 1002.7
20260504034429 53 225 1.0 2.0 0.00 0.00 0.00 54 1002.8
20260504033930 53 225 1.0 2.0 0.00 0.00 0.00 56 1002.9
20260504033428 54 225 1.0 2.0 0.00 0.00 0.00 53 1003.0
20260504032929 54 225 1.0 2.0 0.00 0.00 0.00 52 1003.2
20260504032445 55 225 1.0 2.0 0.00 0.00 0.00 52 1003.2
20260504031929 55 225 0.0 1.0 0.00 0.00 0.00 52 1003.3
20260504031431 55 225 0.0 1.0 0.00 0.00 0.00 53 1003.3
20260504030929 55 225 0.0 1.0 0.00 0.00 0.00 54 1003.4
20260504030430 55 225 0.0 1.0 0.00 0.00 0.00 52 1003.5
20260504025930 55 225 0.0 1.0 0.00 0.00 0.00 50 1003.6
20260504025435 56 225 1.0 2.0 0.00 0.00 0.00 48 1003.7
20260504024929 56 225 1.0 2.0 0.00 0.00 0.00 48 1003.7
20260504024430 57 225 0.0 2.0 0.00 0.00 0.00 47 1003.8
20260504024003 58 225 0.0 1.0 0.00 0.00 0.00 46 1003.8
20260504022931 59 225 0.0 1.0 0.00 0.00 0.00 47 1003.8
20260504022428 59 225 0.0 1.0 0.00 0.00 0.00 43 1003.8
20260504021929 60 225 0.0 1.0 0.00 0.00 0.00 42 1003.7
20260504021431 60 225 0.0 1.0 0.00 0.00 0.00 40 1003.7
20260504021221 61 225 0.0 1.0 0.00 0.00 0.00 38 1003.7
20260504020720 61 225 0.0 2.0 0.00 0.00 0.00 37 1003.7
20260504015927 62 225 0.0 2.0 0.00 0.00 0.00 36 1003.7
20260504015427 62 225 0.0 3.0 0.00 0.00 0.00 36 1003.8
20260504014925 62 225 1.0 3.0 0.00 0.00 0.00 35 1003.7
20260504014423 63 252 0.0 2.0 0.00 0.00 0.00 35 1003.7
20260504013921 63 215 1.0 2.0 0.00 0.00 0.00 34 1003.7
20260504013421 64 236 1.0 4.0 0.00 0.00 0.00 34 1003.7
20260504012920 64 236 2.0 7.0 0.00 0.00 0.00 33 1003.7
20260504012421 65 240 2.0 7.0 0.00 0.00 0.00 33 1003.8
20260504011921 65 235 1.0 4.0 0.00 0.00 0.00 33 1003.9
20260504011419 65 242 1.0 7.0 0.00 0.00 0.00 33 1003.9
20260504010917 65 232 2.0 7.0 0.00 0.00 0.00 32 1003.8
20260504010717 66 257 2.0 8.0 0.00 0.00 0.00 32 1003.8
20260504005916 66 242 2.0 8.0 0.00 0.00 0.00 31 1003.8
20260504005417 66 205 2.0 7.0 0.00 0.00 0.00 31 1003.9
20260504005210 66 248 3.0 9.0 0.00 0.00 0.00 31 1003.9
20260504004414 67 267 3.0 9.0 0.00 0.00 0.00 31 1003.9
20260504003915 67 250 3.0 7.0 0.00 0.00 0.00 31 1004.0
20260504003414 67 259 3.0 7.0 0.00 0.00 0.00 31 1004.0
20260504003207 67 179 3.0 10.0 0.00 0.00 0.00 31 1004.0
20260504002413 67 240 3.0 10.0 0.00 0.00 0.00 31 1004.1
20260504001909 67 159 3.0 8.0 0.00 0.00 0.00 30 1004.1
20260504001410 67 262 4.0 9.0 0.00 0.00 0.00 30 1004.1
20260504000909 67 245 4.0 9.0 0.00 0.00 0.00 29 1004.2
20260504000411 67 276 3.0 10.0 0.00 0.00 0.00 29 1004.2
20260503235910 68 244 4.0 10.0 0.00 0.00 0.00 28 1004.2
20260503235703 68 254 5.0 13.0 0.00 0.00 0.00 28 1004.2
20260503234909 69 225 4.0 13.0 0.00 0.00 0.00 28 1004.3
20260503234410 69 275 4.0 10.0 0.00 0.00 0.00 27 1004.3
20260503234203 69 252 5.0 10.0 0.00 0.00 0.00 27 1004.2
20260503233411 70 221 5.0 10.0 0.00 0.00 0.00 27 1004.2
20260503232911 70 273 4.0 10.0 0.00 0.00 0.00 26 1004.2
20260503232410 70 306 4.0 9.0 0.00 0.00 0.00 27 1004.2
20260503231911 70 283 5.0 9.0 0.00 0.00 0.00 27 1004.2
20260503231705 70 258 4.0 11.0 0.00 0.00 0.00 27 1004.2
20260503230907 70 229 4.0 11.0 0.00 0.00 0.00 25 1004.2
20260503230408 70 309 5.0 12.0 0.00 0.00 0.00 27 1004.4
20260503225908 70 283 5.0 13.0 0.00 0.00 0.00 28 1004.4
20260503225407 70 263 5.0 13.0 0.00 0.00 0.00 27 1004.4
20260503224908 70 284 5.0 11.0 0.00 0.00 0.00 27 1004.4
20260503224408 70 253 4.0 9.0 0.00 0.00 0.00 28 1004.4
20260503223908 70 202 4.0 12.0 0.00 0.00 0.00 29 1004.4
20260503223704 70 315 4.0 12.0 0.00 0.00 0.00 26 1004.5
20260503222903 70 260 5.0 13.0 0.00 0.00 0.00 27 1004.4
20260503222402 70 300 5.0 13.0 0.00 0.00 0.00 28 1004.5
20260503222238 70 277 4.0 11.0 0.00 0.00 0.00 27 1004.6
20260503221656 70 267 4.0 11.0 0.00 0.00 0.00 28 1004.5
20260503220902 70 254 5.0 12.0 0.00 0.00 0.00 28 1004.6
20260503220652 70 265 4.0 12.0 0.00 0.00 0.00 28 1004.6
20260503215903 70 249 4.0 12.0 0.00 0.00 0.00 28 1004.7
20260503215403 70 332 3.0 10.0 0.00 0.00 0.00 28 1004.8
20260503214904 69 227 5.0 14.0 0.00 0.00 0.00 28 1004.7
20260503214653 69 341 8.0 14.0 0.00 0.00 0.00 27 1004.8
20260503213902 69 280 7.0 14.0 0.00 0.00 0.00 29 1004.8
20260503213657 69 0 6.0 14.0 0.00 0.00 0.00 28 1004.8
20260503212904 69 313 6.0 12.0 0.00 0.00 0.00 27 1004.9
20260503212402 69 250 6.0 13.0 0.00 0.00 0.00 27 1004.9
20260503211903 69 346 7.0 14.0 0.00 0.00 0.00 26 1005.0
20260503211442 69 335 6.0 14.0 0.00 0.00 0.00 26 1004.9
20260503210403 69 327 6.0 15.0 0.00 0.00 0.00 27 1005.0
20260503205902 69 275 7.0 16.0 0.00 0.00 0.00 26 1005.3
20260503205402 69 344 9.0 17.0 0.00 0.00 0.00 25 1005.3
20260503204902 69 327 8.0 17.0 0.00 0.00 0.00 24 1005.4
20260503204403 69 289 7.0 14.0 0.00 0.00 0.00 25 1005.5
20260503203903 69 304 6.0 14.0 0.00 0.00 0.00 26 1005.3
20260503203403 69 265 5.0 19.0 0.00 0.00 0.00 27 1005.3
20260503202903 69 260 5.0 19.0 0.00 0.00 0.00 27 1005.3
20260503202402 69 346 6.0 19.0 0.00 0.00 0.00 27 1005.2
20260503201901 69 346 7.0 19.0 0.00 0.00 0.00 28 1005.5
20260503201401 69 340 6.0 13.0 0.00 0.00 0.00 28 1005.5
20260503200904 69 355 6.0 13.0 0.00 0.00 0.00 27 1005.5
20260503200654 69 296 6.0 12.0 0.00 0.00 0.00 30 1005.6
20260503195902 69 288 6.0 10.0 0.00 0.00 0.00 29 1005.7
20260503195402 69 299 7.0 13.0 0.00 0.00 0.00 30 1005.7
20260503194903 69 293 7.0 13.0 0.00 0.00 0.00 30 1005.7
20260503194403 69 298 6.0 14.0 0.00 0.00 0.00 29 1005.7
20260503193902 69 314 6.0 14.0 0.00 0.00 0.00 33 1005.7
20260503193439 68 278 7.0 15.0 0.00 0.00 0.00 31 1005.8
20260503192403 68 313 7.0 15.0 0.00 0.00 0.00 36 1005.8
20260503191929 68 309 7.0 15.0 0.00 0.00 0.00 33 1006.0
20260503191404 68 333 6.0 13.0 0.00 0.00 0.00 34 1005.9
20260503190902 68 319 6.0 13.0 0.00 0.00 0.00 36 1005.9
20260503190525 68 329 7.0 18.0 0.00 0.00 0.00 36 1005.9
20260503184908 67 269 7.0 15.0 0.00 0.00 0.00 36 1005.9
20260503184402 68 331 5.0 14.0 0.00 0.00 0.00 38 1006.0
20260503183903 68 310 6.0 16.0 0.00 0.00 0.00 39 1005.9
20260503183403 67 302 10.0 18.0 0.00 0.00 0.00 42 1006.0
20260503182903 67 355 11.0 18.0 0.00 0.00 0.00 40 1006.0
20260503182401 67 0 9.0 16.0 0.00 0.00 0.00 41 1006.1
20260503181901 67 355 8.0 14.0 0.00 0.00 0.00 41 1006.2
20260503181401 67 348 7.0 14.0 0.00 0.00 0.00 39 1006.2
20260503180901 66 300 7.0 15.0 0.00 0.00 0.00 38 1006.2
20260503180657 66 203 8.0 16.0 0.00 0.00 0.00 37 1006.4
20260503175901 66 342 9.0 17.0 0.00 0.00 0.00 37 1006.5
20260503175402 66 327 9.0 17.0 0.00 0.00 0.00 37 1006.6
20260503174902 66 320 10.0 20.0 0.00 0.00 0.00 40 1006.6
20260503174658 66 339 9.0 20.0 0.00 0.00 0.00 39 1006.6
20260503173902 66 340 9.0 17.0 0.00 0.00 0.00 40 1006.5
20260503173401 66 320 8.0 17.0 0.00 0.00 0.00 39 1006.7
20260503172902 66 315 8.0 15.0 0.00 0.00 0.00 39 1006.6
20260503172748 66 292 8.0 17.0 0.00 0.00 0.00 40 1006.7
20260503171402 66 351 9.0 17.0 0.00 0.00 0.00 42 1006.7
20260503170902 66 330 8.0 16.0 0.00 0.00 0.00 42 1006.7
20260503170401 66 333 8.0 18.0 0.00 0.00 0.00 43 1006.7
20260503150901 62 355 8.0 15.0 0.00 0.00 0.00 49 1006.3
20260503150657 62 9 7.0 15.0 0.00 0.00 0.00 50 1006.2
20260503150158 62 355 6.0 12.0 0.00 0.00 0.00 51 1006.2
20260503131402 56 261 3.0 10.0 0.00 0.00 0.00 53 1005.7
20260503130902 56 281 3.0 10.0 0.00 0.00 0.00 52 1005.6
20260503130658 56 287 3.0 7.0 0.00 0.00 0.00 51 1005.6
20260503120150 51 227 0.0 1.0 0.00 0.00 0.00 66 1004.9
20260503110403 53 227 0.0 1.0 0.00 0.00 0.00 59 1004.5
20260503080901 56 164 3.0 7.0 0.00 0.00 0.00 58 1005.2
20260503080401 55 208 3.0 7.0 0.00 0.00 0.00 58 1005.2
20260503072401 55 172 2.0 5.0 0.00 0.00 0.00 57 1005.6
20260503071903 55 145 2.0 6.0 0.00 0.00 0.00 56 1005.7
20260503071401 55 159 2.0 6.0 0.00 0.00 0.00 56 1005.8
20260503070920 55 153 2.0 5.0 0.00 0.00 0.00 55 1005.9
20260503070402 55 192 2.0 6.0 0.00 0.00 0.00 55 1006.1
20260503070203 56 180 2.0 6.0 0.00 0.00 0.00 54 1006.2
20260503054902 56 196 3.0 10.0 0.00 0.00 0.00 53 1007.4
20260503054402 56 167 4.0 10.0 0.00 0.00 0.00 52 1007.4
20260503053914 56 160 4.0 10.0 0.00 0.00 0.00 53 1007.3
20260503053404 56 169 3.0 9.0 0.00 0.00 0.00 54 1007.4
20260503052902 56 187 3.0 7.0 0.00 0.00 0.00 53 1007.4
20260503052402 56 169 3.0 6.0 0.00 0.00 0.00 53 1007.3
20260503051902 56 182 3.0 5.0 0.00 0.00 0.00 53 1007.5